Location: Bühlhof
(48.7849°N, 8.6361°E)
Time: 06:24:36
(UTC+00:00)

PSLV R/B - Pass Details

Date: 19 January 2026
Orbit: 559 x 589 km, 98.0° (Epoch: 18 February)

Event Time Altitude Azimuth Distance (km) Brightness Sun altitude
Rises 18:11:41 0° 172° (S) 2,805 6.9 -20.8°
Reaches altitude 10° 18:13:51 10° 176° (S) 1,911 6.1 -21.2°
Maximum altitude 18:17:58 64° 258° (WSW) 657 3.8 -21.8°
Drops below altitude 10° 18:22:08 10° 341° (NNW) 1,929 6.2 -22.5°
Sets 18:24:20 0° 344° (NNW) 2,834 7.1 -22.9°
